Time,TemperatureF,DewpointF,PressureIn,WindDirection,WindDirectionDegrees,WindSpeedMPH,WindSpeedGustMPH,Humidity,HourlyPrecipIn,Conditions,Clouds,dailyrainin,SoftwareType,DateUTC
2013-05-05 00:02:00,46.0,43.0,30.09,NNW,340,3.0,7.0,90,0.00,,,0.05,,2013-05-05 05:02:00,
2013-05-05 00:12:00,46.0,43.0,30.09,NNW,340,3.0,7.0,90,0.00,,,0.05,,2013-05-05 05:12:00,
2013-05-05 00:21:00,46.0,44.0,30.09,North,352,5.0,7.0,91,0.00,,,0.05,,2013-05-05 05:21:00,
2013-05-05 00:32:00,46.0,44.0,30.08,North,358,4.0,6.0,91,0.00,,,0.05,,2013-05-05 05:32:00,
2013-05-05 00:42:00,46.0,44.0,30.08,North,358,4.0,6.0,91,0.00,,,0.05,,2013-05-05 05:42:00,
2013-05-05 00:51:00,46.0,44.0,30.08,NNW,344,4.0,7.0,91,0.00,,,0.05,,2013-05-05 05:51:00,
2013-05-05 01:01:00,46.0,44.0,30.08,North,8,4.0,9.0,91,0.00,,,0.05,,2013-05-05 06:01:00,
2013-05-05 01:12:00,46.0,44.0,30.08,North,8,4.0,9.0,91,0.00,,,0.05,,2013-05-05 06:12:00,
2013-05-05 01:21:00,46.0,43.0,30.08,NNW,342,4.0,9.0,90,0.00,,,0.05,,2013-05-05 06:21:00,
2013-05-05 01:32:00,46.0,43.0,30.07,NNW,330,4.0,8.0,90,0.00,,,0.05,,2013-05-05 06:32:00,
2013-05-05 01:42:00,46.0,43.0,30.07,NNW,330,4.0,8.0,90,0.00,,,0.05,,2013-05-05 06:42:00,
2013-05-05 01:51:00,45.0,42.0,30.07,North,1,4.0,8.0,90,0.00,,,0.05,,2013-05-05 06:51:00,
2013-05-05 02:01:00,45.0,42.0,30.07,NNW,346,4.0,8.0,90,0.00,,,0.05,,2013-05-05 07:01:00,
2013-05-05 02:11:00,45.0,42.0,30.07,NNW,346,4.0,8.0,90,0.00,,,0.05,,2013-05-05 07:11:00,
2013-05-05 02:21:00,45.0,42.0,30.07,North,353,6.0,9.0,90,0.00,,,0.05,,2013-05-05 07:21:00,
2013-05-05 02:32:00,45.0,43.0,30.05,NNW,337,5.0,9.0,91,0.00,,,0.05,,2013-05-05 07:32:00,
2013-05-05 02:42:00,45.0,43.0,30.05,NNW,337,5.0,9.0,91,0.00,,,0.05,,2013-05-05 07:42:00,
2013-05-05 02:52:00,45.0,43.0,30.06,NNW,340,6.0,11.0,91,0.00,,,0.04,,2013-05-05 07:52:00,
2013-05-05 03:02:00,45.0,43.0,30.06,NNW,346,4.0,8.0,91,0.00,,,0.03,,2013-05-05 08:02:00,
2013-05-05 03:11:00,45.0,43.0,30.06,NNW,346,4.0,8.0,91,0.00,,,0.03,,2013-05-05 08:11:00,
2013-05-05 03:21:00,45.0,43.0,30.06,North,359,5.0,10.0,91,0.00,,,0.03,,2013-05-05 08:21:00,
2013-05-05 03:31:00,45.0,43.0,30.07,NNE,23,4.0,7.0,91,0.00,,,0.03,,2013-05-05 08:31:00,
2013-05-05 03:42:00,45.0,43.0,30.07,NNE,23,4.0,7.0,91,0.00,,,0.03,,2013-05-05 08:42:00,
2013-05-05 03:53:00,45.0,43.0,30.07,North,8,5.0,6.0,91,0.00,,,0.02,,2013-05-05 08:53:00,
2013-05-05 04:01:00,45.0,43.0,30.07,NW,320,3.0,7.0,92,0.00,,,0.02,,2013-05-05 09:01:00,
2013-05-05 04:11:00,45.0,43.0,30.07,NW,320,3.0,7.0,92,0.00,,,0.02,,2013-05-05 09:11:00,
2013-05-05 04:21:00,45.0,43.0,30.08,North,355,5.0,7.0,92,0.00,,,0.02,,2013-05-05 09:21:00,
2013-05-05 04:32:00,45.0,43.0,30.08,North,349,4.0,7.0,92,0.00,,,0.02,,2013-05-05 09:32:00,
2013-05-05 04:42:00,45.0,43.0,30.08,North,349,4.0,7.0,92,0.00,,,0.02,,2013-05-05 09:42:00,
2013-05-05 04:52:00,45.0,43.0,30.08,North,349,3.0,7.0,92,0.00,,,0.01,,2013-05-05 09:52:00,
2013-05-05 05:02:00,44.0,42.0,30.08,NNW,346,4.0,9.0,92,0.00,,,0.01,,2013-05-05 10:02:00,
2013-05-05 05:12:00,44.0,42.0,30.08,NNW,336,2.0,7.0,92,0.00,,,0.00,,2013-05-05 10:12:00,
2013-05-05 05:22:00,44.0,42.0,30.08,NNW,336,2.0,7.0,92,0.00,,,0.00,,2013-05-05 10:22:00,
2013-05-05 05:32:00,44.0,42.0,30.08,NNW,334,3.0,6.0,93,0.00,,,0.00,,2013-05-05 10:32:00,
2013-05-05 05:42:00,44.0,42.0,30.08,NNW,334,3.0,6.0,93,0.00,,,0.00,,2013-05-05 10:42:00,
2013-05-05 05:52:00,44.0,42.0,30.08,NW,318,4.0,9.0,93,0.00,,,0.00,,2013-05-05 10:52:00,
2013-05-05 06:01:00,44.0,42.0,30.08,NW,326,3.0,7.0,92,0.00,,,0.00,,2013-05-05 11:01:00,
2013-05-05 06:12:00,44.0,42.0,30.08,NW,326,3.0,7.0,92,0.00,,,0.00,,2013-05-05 11:12:00,
2013-05-05 06:21:00,44.0,42.0,30.09,North,349,4.0,7.0,92,0.00,,,0.00,,2013-05-05 11:21:00,
2013-05-05 06:32:00,44.0,42.0,30.10,WNW,291,3.0,5.0,92,0.00,,,0.00,,2013-05-05 11:32:00,
2013-05-05 06:42:00,44.0,42.0,30.10,WNW,291,3.0,5.0,92,0.00,,,0.00,,2013-05-05 11:42:00,
2013-05-05 06:51:00,44.0,42.0,30.10,NW,312,3.0,8.0,92,0.00,,,0.00,,2013-05-05 11:51:00,
2013-05-05 07:02:00,44.0,42.0,30.11,North,355,2.0,5.0,92,0.00,,,0.00,,2013-05-05 12:02:00,
2013-05-05 07:11:00,44.0,42.0,30.11,North,355,2.0,5.0,92,0.00,,,0.00,,2013-05-05 12:11:00,
2013-05-05 07:21:00,44.0,42.0,30.11,NNW,334,2.0,4.0,92,0.00,,,0.00,,2013-05-05 12:21:00,
2013-05-05 07:32:00,44.0,42.0,30.11,NNW,345,5.0,7.0,92,0.00,,,0.00,,2013-05-05 12:32:00,
2013-05-05 07:42:00,44.0,42.0,30.11,NNW,345,5.0,7.0,92,0.00,,,0.00,,2013-05-05 12:42:00,
2013-05-05 07:52:00,44.0,42.0,30.11,WNW,284,2.0,6.0,92,0.00,,,0.00,,2013-05-05 12:52:00,
2013-05-05 08:01:00,44.0,42.0,30.12,WNW,299,3.0,6.0,92,0.00,,,0.00,,2013-05-05 13:01:00,
2013-05-05 08:11:00,44.0,42.0,30.12,WNW,299,3.0,6.0,92,0.00,,,0.00,,2013-05-05 13:11:00,
2013-05-05 08:21:00,45.0,43.0,30.12,NNW,341,2.0,5.0,93,0.00,,,0.00,,2013-05-05 13:21:00,
2013-05-05 08:32:00,45.0,43.0,30.13,NW,324,2.0,4.0,92,0.00,,,0.00,,2013-05-05 13:32:00,
2013-05-05 08:42:00,45.0,43.0,30.13,NW,324,2.0,4.0,92,0.00,,,0.00,,2013-05-05 13:42:00,
2013-05-05 08:52:00,45.0,43.0,30.13,NW,324,3.0,5.0,92,0.00,,,0.00,,2013-05-05 13:52:00,
2013-05-05 09:02:00,45.0,43.0,30.13,North,351,4.0,7.0,92,0.00,,,0.00,,2013-05-05 14:02:00,
2013-05-05 09:11:00,45.0,43.0,30.13,WNW,297,3.0,6.0,92,0.00,,,0.00,,2013-05-05 14:11:00,
2013-05-05 09:21:00,45.0,43.0,30.13,WNW,297,3.0,6.0,92,0.00,,,0.00,,2013-05-05 14:21:00,
2013-05-05 09:31:00,46.0,44.0,30.14,NW,305,3.0,6.0,92,0.00,,,0.00,,2013-05-05 14:31:00,
2013-05-05 09:42:00,46.0,44.0,30.14,NW,305,3.0,6.0,92,0.00,,,0.00,,2013-05-05 14:42:00,
2013-05-05 09:51:00,46.0,44.0,30.14,WNW,297,3.0,5.0,91,0.00,,,0.00,,2013-05-05 14:51:00,
2013-05-05 10:02:00,45.0,43.0,30.14,NNW,342,2.0,5.0,91,0.00,,,0.00,,2013-05-05 15:02:00,
2013-05-05 10:11:00,45.0,43.0,30.14,NNW,342,2.0,5.0,91,0.00,,,0.00,,2013-05-05 15:11:00,
2013-05-05 10:21:00,46.0,44.0,30.14,NNW,342,2.0,5.0,92,0.00,,,0.00,,2013-05-05 15:21:00,
2013-05-05 10:33:00,46.0,44.0,30.14,North,10,3.0,5.0,91,0.00,,,0.00,,2013-05-05 15:33:00,
2013-05-05 10:43:00,46.0,44.0,30.14,North,10,3.0,5.0,91,0.00,,,0.00,,2013-05-05 15:43:00,
2013-05-05 10:53:00,46.0,44.0,30.14,WNW,287,2.0,6.0,91,0.00,,,0.00,,2013-05-05 15:53:00,
2013-05-05 11:03:00,46.0,44.0,30.14,WNW,287,3.0,5.0,91,0.00,,,0.00,,2013-05-05 16:03:00,
2013-05-05 11:12:00,46.0,44.0,30.14,WNW,287,3.0,5.0,91,0.00,,,0.00,,2013-05-05 16:12:00,
2013-05-05 11:22:00,47.0,44.0,30.14,NNW,329,3.0,8.0,90,0.00,,,0.00,,2013-05-05 16:22:00,
2013-05-05 11:32:00,47.0,44.0,30.15,WNW,288,5.0,8.0,89,0.00,,,0.00,,2013-05-05 16:32:00,
2013-05-05 11:42:00,47.0,44.0,30.15,WNW,288,5.0,8.0,89,0.00,,,0.00,,2013-05-05 16:42:00,
2013-05-05 11:53:00,48.0,45.0,30.15,NW,326,4.0,6.0,88,0.00,,,0.00,,2013-05-05 16:53:00,
2013-05-05 12:02:00,48.0,45.0,30.15,NNW,332,3.0,8.0,88,0.00,,,0.00,,2013-05-05 17:02:00,
2013-05-05 12:12:00,48.0,45.0,30.15,NNW,332,3.0,8.0,88,0.00,,,0.00,,2013-05-05 17:12:00,
2013-05-05 12:23:00,49.0,45.0,30.15,NNW,343,5.0,7.0,87,0.00,,,0.00,,2013-05-05 17:23:00,
2013-05-05 12:32:00,49.0,46.0,30.15,WNW,295,3.0,8.0,88,0.00,,,0.00,,2013-05-05 17:32:00,
2013-05-05 12:42:00,49.0,46.0,30.15,WNW,295,3.0,8.0,88,0.00,,,0.00,,2013-05-05 17:42:00,
2013-05-05 12:52:00,49.0,45.0,30.15,NNW,346,4.0,7.0,87,0.00,,,0.00,,2013-05-05 17:52:00,
2013-05-05 13:01:00,49.0,45.0,30.14,NW,306,3.0,7.0,86,0.00,,,0.00,,2013-05-05 18:01:00,
2013-05-05 13:12:00,49.0,45.0,30.14,NW,306,3.0,7.0,86,0.00,,,0.00,,2013-05-05 18:12:00,
2013-05-05 13:21:00,50.0,46.0,30.14,NNW,331,3.0,8.0,85,0.00,,,0.00,,2013-05-05 18:21:00,
2013-05-05 13:32:00,50.0,45.0,30.14,WNW,292,6.0,10.0,84,0.00,,,0.00,,2013-05-05 18:32:00,
2013-05-05 13:42:00,50.0,45.0,30.14,WNW,292,6.0,10.0,84,0.00,,,0.00,,2013-05-05 18:42:00,
2013-05-05 13:52:00,50.0,46.0,30.13,NW,316,6.0,9.0,85,0.00,,,0.00,,2013-05-05 18:52:00,
2013-05-05 14:01:00,50.0,46.0,30.13,NW,323,6.0,9.0,85,0.00,,,0.00,,2013-05-05 19:01:00,
2013-05-05 14:11:00,50.0,46.0,30.13,NW,323,6.0,9.0,85,0.00,,,0.00,,2013-05-05 19:11:00,
2013-05-05 14:21:00,51.0,46.0,30.12,WNW,296,7.0,10.0,84,0.00,,,0.00,,2013-05-05 19:21:00,
2013-05-05 14:32:00,51.0,46.0,30.12,WNW,301,7.0,10.0,83,0.00,,,0.00,,2013-05-05 19:32:00,
2013-05-05 14:42:00,51.0,46.0,30.12,WNW,301,7.0,10.0,83,0.00,,,0.00,,2013-05-05 19:42:00,
2013-05-05 14:52:00,52.0,47.0,30.12,WNW,295,6.0,9.0,83,0.00,,,0.00,,2013-05-05 19:52:00,
2013-05-05 15:01:00,52.0,47.0,30.12,NNW,330,5.0,9.0,83,0.00,,,0.00,,2013-05-05 20:01:00,
2013-05-05 15:11:00,52.0,47.0,30.12,NNW,330,5.0,9.0,83,0.00,,,0.00,,2013-05-05 20:11:00,
2013-05-05 15:21:00,53.0,48.0,30.11,NNW,328,5.0,9.0,83,0.00,,,0.00,,2013-05-05 20:21:00,
2013-05-05 15:31:00,53.0,48.0,30.11,NNW,342,5.0,8.0,82,0.00,,,0.00,,2013-05-05 20:31:00,
2013-05-05 15:41:00,53.0,48.0,30.11,NNW,342,5.0,8.0,82,0.00,,,0.00,,2013-05-05 20:41:00,
2013-05-05 15:52:00,53.0,48.0,30.10,NW,321,4.0,10.0,82,0.00,,,0.00,,2013-05-05 20:52:00,
2013-05-05 16:01:00,53.0,48.0,30.10,WNW,302,5.0,9.0,83,0.00,,,0.00,,2013-05-05 21:01:00,
2013-05-05 16:11:00,53.0,48.0,30.10,WNW,302,5.0,9.0,83,0.00,,,0.00,,2013-05-05 21:11:00,
2013-05-05 16:21:00,53.0,48.0,30.09,NNW,341,5.0,9.0,83,0.00,,,0.00,,2013-05-05 21:21:00,
2013-05-05 16:33:00,54.0,49.0,30.09,NW,311,5.0,9.0,82,0.00,,,0.00,,2013-05-05 21:33:00,
2013-05-05 16:42:00,54.0,49.0,30.09,NW,311,5.0,9.0,82,0.00,,,0.00,,2013-05-05 21:42:00,
2013-05-05 16:53:00,54.0,48.0,30.09,NW,321,7.0,10.0,81,0.00,,,0.00,,2013-05-05 21:53:00,
2013-05-05 17:02:00,54.0,48.0,30.08,WNW,286,4.0,10.0,81,0.00,,,0.00,,2013-05-05 22:02:00,
2013-05-05 17:12:00,54.0,48.0,30.08,WNW,286,4.0,10.0,81,0.00,,,0.00,,2013-05-05 22:12:00,
2013-05-05 17:22:00,55.0,49.0,30.09,NNW,334,6.0,9.0,79,0.00,,,0.00,,2013-05-05 22:22:00,
2013-05-05 17:33:00,54.0,48.0,30.09,NNW,330,4.0,8.0,81,0.00,,,0.00,,2013-05-05 22:33:00,
2013-05-05 17:42:00,54.0,48.0,30.09,NNW,330,4.0,8.0,81,0.00,,,0.00,,2013-05-05 22:42:00,
2013-05-05 17:52:00,54.0,48.0,30.10,NNW,327,4.0,9.0,81,0.00,,,0.00,,2013-05-05 22:52:00,
2013-05-05 18:02:00,54.0,49.0,30.09,WNW,293,4.0,9.0,82,0.00,,,0.00,,2013-05-05 23:02:00,
2013-05-05 18:11:00,54.0,49.0,30.09,WNW,293,4.0,9.0,82,0.00,,,0.00,,2013-05-05 23:11:00,
2013-05-05 18:21:00,54.0,49.0,30.09,NNW,328,4.0,8.0,82,0.00,,,0.00,,2013-05-05 23:21:00,
2013-05-05 18:32:00,54.0,49.0,30.09,NW,311,4.0,9.0,83,0.00,,,0.00,,2013-05-05 23:32:00,
2013-05-05 18:42:00,54.0,49.0,30.09,NW,311,4.0,9.0,83,0.00,,,0.00,,2013-05-05 23:42:00,
2013-05-05 18:52:00,54.0,49.0,30.09,NW,319,3.0,8.0,83,0.00,,,0.00,,2013-05-05 23:52:00,
2013-05-05 19:01:00,53.0,48.0,30.09,NW,304,5.0,8.0,83,0.00,,,0.00,,2013-05-06 00:01:00,
2013-05-05 19:11:00,53.0,48.0,30.09,NW,304,5.0,8.0,83,0.00,,,0.00,,2013-05-06 00:11:00,
2013-05-05 19:21:00,53.0,48.0,30.09,NW,306,2.0,10.0,84,0.00,,,0.00,,2013-05-06 00:21:00,
2013-05-05 19:31:00,54.0,49.0,30.09,NW,306,3.0,6.0,84,0.00,,,0.00,,2013-05-06 00:31:00,
2013-05-05 19:41:00,54.0,49.0,30.09,NW,306,3.0,6.0,84,0.00,,,0.00,,2013-05-06 00:41:00,
2013-05-05 19:52:00,54.0,49.0,30.09,NW,312,4.0,10.0,83,0.00,,,0.00,,2013-05-06 00:52:00,
2013-05-05 20:01:00,54.0,49.0,30.09,NW,325,5.0,8.0,83,0.00,,,0.00,,2013-05-06 01:01:00,
2013-05-05 20:11:00,54.0,49.0,30.09,NW,325,5.0,8.0,83,0.00,,,0.00,,2013-05-06 01:11:00,
2013-05-05 20:21:00,54.0,49.0,30.09,WNW,290,4.0,7.0,84,0.00,,,0.00,,2013-05-06 01:21:00,
2013-05-05 20:31:00,54.0,49.0,30.09,NW,313,4.0,6.0,84,0.00,,,0.00,,2013-05-06 01:31:00,
2013-05-05 20:41:00,54.0,49.0,30.09,NW,313,4.0,6.0,84,0.00,,,0.00,,2013-05-06 01:41:00,
2013-05-05 20:52:00,53.0,48.0,30.09,WNW,303,4.0,9.0,83,0.00,,,0.00,,2013-05-06 01:52:00,
2013-05-05 21:01:00,53.0,48.0,30.09,NNW,329,4.0,10.0,84,0.00,,,0.00,,2013-05-06 02:01:00,
2013-05-05 21:12:00,53.0,48.0,30.09,NNW,329,4.0,10.0,84,0.00,,,0.00,,2013-05-06 02:12:00,
2013-05-05 21:21:00,53.0,48.0,30.09,WNW,299,5.0,10.0,84,0.00,,,0.00,,2013-05-06 02:21:00,
2013-05-05 21:32:00,52.0,47.0,30.09,NNW,336,6.0,9.0,84,0.00,,,0.00,,2013-05-06 02:32:00,
2013-05-05 21:42:00,52.0,47.0,30.09,NNW,336,6.0,9.0,84,0.00,,,0.00,,2013-05-06 02:42:00,
2013-05-05 21:52:00,52.0,48.0,30.10,NNW,332,3.0,9.0,85,0.00,,,0.00,,2013-05-06 02:52:00,
2013-05-05 22:01:00,52.0,48.0,30.10,NNW,331,3.0,7.0,86,0.00,,,0.00,,2013-05-06 03:01:00,
2013-05-05 22:11:00,52.0,48.0,30.10,NNW,331,3.0,7.0,86,0.00,,,0.00,,2013-05-06 03:11:00,
2013-05-05 22:22:00,52.0,48.0,30.11,NW,306,3.0,4.0,86,0.00,,,0.00,,2013-05-06 03:22:00,
2013-05-05 22:33:00,52.0,48.0,30.11,NNW,334,4.0,8.0,86,0.00,,,0.00,,2013-05-06 03:33:00,
2013-05-05 22:42:00,52.0,48.0,30.11,NNW,334,4.0,8.0,86,0.00,,,0.00,,2013-05-06 03:42:00,
2013-05-05 22:52:00,52.0,48.0,30.11,WNW,286,2.0,6.0,86,0.00,,,0.00,,2013-05-06 03:52:00,
2013-05-05 23:02:00,52.0,48.0,30.11,NNW,336,1.0,6.0,86,0.00,,,0.00,,2013-05-06 04:02:00,
2013-05-05 23:12:00,52.0,48.0,30.11,NNW,336,1.0,6.0,86,0.00,,,0.00,,2013-05-06 04:12:00,
2013-05-05 23:23:00,52.0,48.0,30.10,NNW,339,2.0,4.0,86,0.00,,,0.00,,2013-05-06 04:23:00,
2013-05-05 23:32:00,52.0,48.0,30.10,NNW,338,1.0,7.0,86,0.00,,,0.00,,2013-05-06 04:32:00,
2013-05-05 23:42:00,52.0,48.0,30.10,NNW,338,1.0,7.0,86,0.00,,,0.00,,2013-05-06 04:42:00,
2013-05-05 23:53:00,52.0,48.0,30.11,NNW,340,4.0,8.0,86,0.00,,,0.00,,2013-05-06 04:53:00,